Skip Page Navigation
NASA JPL Caltech
NASA Logo - Jet Propulsion Laboratory + View the NASA Portal
+ Center for Near-Earth Object Studies
JPL Home Earth Solar System Stars & Galaxies Technology
JPL Solar System Dynamics
BODIES ORBITS EPHEMERIDES TOOLS PHYSICAL DATA DISCOVERY FAQ SITE MAP
IMPORTANT: The SSD Announcement email list is now available. Major changes are coming in the near future, including possible hostname and/or URL changes. To be notified of such changes, subscribe to this email list.

Please visit this page for more details.


JPL Small-Body Database Browser
Search: [ help ]  
37867 (1998 FO16)
Classification: Main-belt Asteroid          SPK-ID: 2037867
Ephemeris | Orbit Diagram | Orbital Elements | Mission Design | Physical Parameters | Discovery Circumstances ]

[ show orbit diagram ]
Orbital Elements at Epoch 2459000.5 (2020-May-31.0) TDB
Reference: JPL 23 (heliocentric ecliptic J2000)
 Element Value Uncertainty (1-sigma)   Units 
e .1937902956717614 3.3936e-08  
a 2.422820615867849 7.2874e-09 au
q 1.95330149235918 8.1314e-08 au
i 1.067066606362501 3.7923e-06 deg
node 7.764022951367076 0.00014871 deg
peri 28.46175468853319 0.00014895 deg
M 66.34516300762876 7.0142e-06 deg
tp 2458746.644204805643
(2019-Sep-20.14420481)
2.6861e-05 TDB
period 1377.464190712142
3.77
6.2148e-06
1.702e-08
d
yr
n .2613498067153977 1.1791e-09 deg/d
Q 2.892339739376519 8.6997e-09 au
  Orbit Determination Parameters
   # obs. used (total)      1413  
   data-arc span      9518 days (26.06 yr)  
   first obs. used      1994-01-10  
   last obs. used      2020-02-01  
   planetary ephem.      DE431  
   SB-pert. ephem.      SB431-N16  
   condition code      0  
   norm. resid. RMS      .49599  
   source      ORB  
   producer      Otto Matic  
   solution date      2020-Feb-23 04:40:03  

Additional Information
 Earth MOID = .960376 au 
 Jupiter MOID = 2.53444 au 
 T_jup = 3.486 
[ show covariance matrix ]

Ephemeris | Orbit Diagram | Orbital Elements | Mission Design | Physical Parameters | Discovery Circumstances ]

Physical Parameter Table
Parameter Symbol Value Units Sigma Reference Notes
absolute magnitude H 15.1   n/a MPO351096  

37867 (1998 FO16)          Discovered 1998-Mar-20 by LINEAR at Socorro
Reference: 20020328/Numbers.arcLast Updated: 2004-04-19

Alternate Designations
 1998 FO16 = 2000 OH21 
Ephemeris | Orbit Diagram | Orbital Elements | Mission Design | Physical Parameters | Discovery Circumstances ]
ABOUT SSD CREDITS/AWARDS PRIVACY/COPYRIGHT GLOSSARY LINKS
FirstGov 2020-Apr-09 18:07 UT
(server date/time)  
NASA Home Page
Site Manager:   Ryan S. Park
Webmaster  Alan B. Chamberlin